Flag for South Korea Weather past 2 weeks in Incheon, South Korea

Now
37 °F

Fog.


Feels Like: 34 °F
Forecast: 30 / 43 °F
Wind: 5 mph from Northeast

Location: Incheon International Airport

Current Time: Jan 26, 2015 at 6:25:28 AM

Latest Report: Jan 26, 2015 at 6:00 AM


Visibility: 1 mi

Pressure: 30.09 "Hg

Humidity: 93%

Dew point: 36 °F

Location of IncheonLocation

Historic Weather in Incheon — Graph

°F

Incheon temperature yesterday

Maximum temperature yesterday: 39 °F (at 11:00 AM)
Minimum temperature yesterday: 30 °F (at 4:30 AM)
Average temperature yesterday: 35 °F

Past Weeks' High & Low Weather Summary

 TemperatureHumidityPressure
High43 °F (Jan 15, 1:30 PM)100% (Jan 26, 4:00 AM)30.60 "Hg (Jan 26, 4:00 AM)
Low19 °F (Jan 12, 6:30 AM)26% (Jan 13, 1:30 PM)29.98 "Hg (Jan 18, 9:00 PM)
Average32 °F63%30.28 "Hg
* Reported Jan 11 5:00 AM — Jan 26 5:00 AM, Incheon, Weather by CustomWeather, © 2014

Note: Actual official high and low records may vary slightly from our data, if they occured in-between our weather recording intervals... More about our weather records

Advertising

Incheon weather history for previous 24 hours

 ConditionsComfort  
Time TempWeatherWind HumidityBarometerVisibility
5:00 AM
Jan 26
37 °FFog.7 mph93%30.09 "Hg1 mi
4:30 AM37 °FFog.7 mph93%30.09 "Hg1 mi
4:00 AM36 °FFog.8 mph100%30.09 "Hg1 mi
3:30 AM36 °FFog.9 mph93%30.09 "Hg1 mi
3:00 AM36 °FFog.10 mph93%30.09 "Hg1 mi
2:30 AM36 °FDrizzle. Fog.12 mph93%30.09 "Hg1 mi
2:00 AM37 °FDrizzle. Fog.8 mph93%30.09 "Hg1 mi
1:30 AM37 °FDrizzle. Fog.8 mph93%30.12 "Hg1 mi
1:00 AM36 °FDrizzle. Fog.12 mph93%30.12 "Hg1 mi
12:30 AM36 °FDrizzle. Fog.10 mph93%30.12 "Hg1 mi
12:00 AM36 °FDrizzle. Fog.10 mph93%30.12 "Hg1 mi
11:30 PM
Jan 25
36 °FDrizzle. Fog.13 mph93%30.12 "Hg1 mi
11:00 PM36 °FLight rain. Fog.13 mph93%30.12 "Hg1 mi
10:30 PM36 °FLight rain. Fog.12 mph93%30.12 "Hg1 mi
10:00 PM36 °FLight rain. Fog.12 mph93%30.12 "Hg1 mi
9:30 PM36 °FChilly.12 mph93%30.12 "Hg1 mi
9:00 PM36 °FChilly.12 mph93%30.12 "Hg1 mi
8:30 PM36 °FLight rain. Fog.12 mph93%30.15 "Hg1 mi
8:00 PM36 °FChilly.10 mph93%30.15 "Hg1 mi
7:30 PM36 °FChilly.13 mph93%30.15 "Hg1 mi
7:00 PM36 °FChilly.9 mph93%30.15 "Hg1 mi
6:30 PM36 °FChilly.12 mph93%30.15 "Hg1 mi
6:00 PM36 °FChilly.9 mph93%30.12 "Hg1 mi
5:30 PM36 °FChilly.13 mph93%30.15 "Hg1 mi
5:00 PM36 °FChilly.10 mph93%30.15 "Hg1 mi
4:30 PM37 °FChilly.9 mph87%30.15 "Hg1 mi
4:00 PM37 °FLight rain. Fog.8 mph87%30.15 "Hg1 mi
3:30 PM37 °FLight rain. Fog.7 mph87%30.15 "Hg2 mi
3:00 PM37 °FLight rain. Fog.7 mph81%30.15 "Hg2 mi
2:30 PM37 °FLight rain. Fog.7 mph81%30.18 "Hg2 mi
2:00 PM37 °FLight rain. Fog.6 mph81%30.18 "Hg2 mi
1:30 PM39 °FLight rain. Fog.6 mph70%30.21 "Hg3 mi
1:00 PM39 °FLight rain. Fog.6 mph70%30.21 "Hg3 mi
12:30 PM39 °FLight rain. Fog.5 mph65%30.24 "Hg3 mi
11:30 AM39 °FFog.5 mph61%30.27 "Hg3 mi
11:00 AM39 °FFog.7 mph61%30.27 "Hg3 mi
10:30 AM37 °FFog.7 mph70%30.27 "Hg3 mi
10:00 AM37 °FFog.5 mph70%30.27 "Hg3 mi
9:30 AM34 °FFog.6 mph81%30.30 "Hg2 mi
9:00 AM34 °FFog.7 mph81%30.30 "Hg2 mi
8:30 AM34 °FFog.7 mph81%30.30 "Hg2 mi
8:00 AM36 °FFog.3 mph75%30.30 "Hg2 mi
7:30 AM34 °FFog.6 mph81%30.30 "Hg3 mi
7:00 AM32 °FIce fog.6 mph87%30.30 "Hg3 mi
6:30 AM32 °FIce fog.5 mph80%30.30 "Hg3 mi
6:00 AM32 °FIce fog.6 mph80%30.30 "Hg3 mi
Weather by CustomWeather, © 2014

See weather overviewHow to use our weather pages